KJ6HT Weather Reports


Display with metric or nautical units.
time (UTC)temp
F
wind
direction
speed
MPH
gust
MPH
rain 1hr
in
rain 24hr
in
rain mn
in
humidity
%
barometer
mb
20260905164540 79 108 0.0 2.0 0.00 0.00 0.00 37 1013.2
20260905163036 77 125 0.0 2.0 0.00 0.00 0.00 39 1013.2
20260905161531 75 231 1.0 3.0 0.00 0.00 0.00 48 1013.1
20260905160030 73 127 1.0 3.0 0.00 0.00 0.00 51 1013.1
20260905154529 71 124 0.0 3.0 0.00 0.00 0.00 58 1013.1
20260905153022 70 139 1.0 3.0 0.00 0.00 0.00 66 1013.0
20260905151520 69 195 0.0 2.0 0.00 0.00 0.00 65 1012.9
20260905150015 67 204 0.0 3.0 0.00 0.00 0.00 66 1013.0
20260905144512 66 311 0.0 2.0 0.00 0.00 0.00 67 1012.7
20260905143011 65 310 0.0 0.0 0.00 0.00 0.00 71 1012.7
20260905141508 62 310 0.0 0.0 0.00 0.00 0.00 75 1012.6
20260905140006 59 311 0.0 0.0 0.00 0.00 0.00 86 1012.5
20260905134505 57 311 0.0 0.0 0.00 0.00 0.00 90 1012.3
20260905133002 58 310 0.0 0.0 0.00 0.00 0.00 90 1012.2
20260905131606 58 310 0.0 0.0 0.00 0.00 0.00 90 1012.2
20260905130159 58 310 0.0 0.0 0.00 0.00 0.00 90 1012.0
20260905124557 59 310 0.0 0.0 0.00 0.00 0.00 89 1012.0
20260905123058 59 310 0.0 0.0 0.00 0.00 0.00 88 1011.9
20260905121555 60 311 0.0 0.0 0.00 0.00 0.00 89 1011.9
20260905120051 61 310 0.0 0.0 0.00 0.00 0.00 88 1011.9
20260905114549 61 310 0.0 0.0 0.00 0.00 0.00 87 1012.0
20260905113051 61 311 0.0 0.0 0.00 0.00 0.00 88 1011.9
20260905111635 61 311 0.0 0.0 0.00 0.00 0.00 88 1011.9
20260905110047 61 310 0.0 0.0 0.00 0.00 0.00 86 1012.0
20260905104543 62 310 0.0 0.0 0.00 0.00 0.00 86 1012.1
20260905103043 62 311 0.0 0.0 0.00 0.00 0.00 85 1012.0
20260905101550 62 311 0.0 0.0 0.00 0.00 0.00 86 1012.0
20260905100047 62 311 0.0 0.0 0.00 0.00 0.00 85 1012.1
20260905094540 62 311 0.0 0.0 0.00 0.00 0.00 85 1012.0
20260905093038 62 310 0.0 0.0 0.00 0.00 0.00 83 1012.1
20260905091537 63 311 0.0 0.0 0.00 0.00 0.00 83 1012.1
20260905090035 63 311 0.0 0.0 0.00 0.00 0.00 83 1012.2
20260905084537 64 310 0.0 0.0 0.00 0.00 0.00 82 1012.2
20260905083032 64 310 0.0 0.0 0.00 0.00 0.00 81 1012.3
20260905081525 65 310 0.0 0.0 0.00 0.00 0.00 79 1012.5
20260905080036 65 311 0.0 0.0 0.00 0.00 0.00 80 1012.4
20260905074524 65 311 0.0 0.0 0.00 0.00 0.00 78 1012.5
20260905073022 65 311 0.0 0.0 0.00 0.00 0.00 79 1012.4
20260905071523 66 311 0.0 0.0 0.00 0.00 0.00 78 1012.4
20260905070018 66 311 0.0 0.0 0.00 0.00 0.00 76 1012.2
20260905064516 67 311 0.0 0.0 0.00 0.00 0.00 75 1012.1
20260905063014 68 29 0.0 3.0 0.00 0.00 0.00 75 1012.1
20260905061515 67 264 0.0 1.0 0.00 0.00 0.00 73 1012.0
20260905060024 67 264 0.0 0.0 0.00 0.00 0.00 74 1011.9
20260905054513 68 264 0.0 0.0 0.00 0.00 0.00 73 1011.9
20260905053012 69 264 0.0 0.0 0.00 0.00 0.00 70 1011.9
20260905051510 70 264 0.0 2.0 0.00 0.00 0.00 69 1011.9
20260905050015 70 284 1.0 3.0 0.00 0.00 0.00 69 1011.8
20260905044509 70 308 1.0 5.0 0.00 0.00 0.00 68 1011.7
20260905043009 71 303 0.0 2.0 0.00 0.00 0.00 66 1011.5
20260905041508 71 304 2.0 6.0 0.00 0.00 0.00 64 1011.3
20260905040008 72 304 1.0 4.0 0.00 0.00 0.00 62 1011.2
20260905034507 73 239 2.0 5.0 0.00 0.00 0.00 61 1011.1
20260905033013 73 302 2.0 6.0 0.00 0.00 0.00 58 1010.8
20260905031506 74 305 1.0 6.0 0.00 0.00 0.00 56 1010.6
20260905030006 74 217 2.0 6.0 0.00 0.00 0.00 54 1010.4
20260905024506 75 339 2.0 7.0 0.00 0.00 0.00 51 1010.2
20260905023005 76 297 4.0 9.0 0.00 0.00 0.00 49 1010.1
20260905021503 77 293 3.0 12.0 0.00 0.00 0.00 48 1010.1
20260905020003 77 257 3.0 12.0 0.00 0.00 0.00 47 1010.1
20260905014502 78 308 3.0 18.0 0.00 0.00 0.00 47 1010.0
20260905013003 79 269 4.0 15.0 0.00 0.00 0.00 46 1009.9
20260905011602 80 278 6.0 13.0 0.00 0.00 0.00 46 1010.0
20260905010109 82 267 3.0 11.0 0.00 0.00 0.00 46 1010.1
20260905004620 82 268 6.0 13.0 0.00 0.00 0.00 46 1010.0
20260905003058 83 291 4.0 11.0 0.00 0.00 0.00 47 1010.0
20260905001600 84 285 5.0 11.0 0.00 0.00 0.00 47 1009.9
20260905000109 85 235 6.0 13.0 0.00 0.00 0.00 46 1009.9
20260904234555 86 307 3.0 11.0 0.00 0.00 0.00 45 1009.9
20260904233054 86 275 4.0 11.0 0.00 0.00 0.00 44 1009.8
20260904231553 87 256 5.0 10.0 0.00 0.00 0.00 42 1009.8
20260904230108 88 253 4.0 10.0 0.00 0.00 0.00 41 1010.0
20260904224551 87 233 4.0 12.0 0.00 0.00 0.00 40 1010.0
20260904223052 88 235 4.0 8.0 0.00 0.00 0.00 39 1010.0
20260904221548 88 204 3.0 9.0 0.00 0.00 0.00 39 1010.1
20260904220048 88 164 3.0 9.0 0.00 0.00 0.00 38 1010.2
20260904214547 88 273 3.0 12.0 0.00 0.00 0.00 38 1010.3
20260904213044 87 290 1.0 7.0 0.00 0.00 0.00 41 1010.4
20260904211540 87 321 4.0 13.0 0.00 0.00 0.00 40 1010.7
20260904210038 85 229 2.0 12.0 0.00 0.00 0.00 42 1010.7
20260904204537 85 253 3.0 6.0 0.00 0.00 0.00 43 1011.0
20260904203038 85 271 2.0 7.0 0.00 0.00 0.00 44 1011.0
20260904201536 86 280 3.0 8.0 0.00 0.00 0.00 43 1011.1
20260904200043 83 75 2.0 9.0 0.00 0.00 0.00 45 1011.2
20260904194535 83 251 0.0 6.0 0.00 0.00 0.00 45 1011.4
20260904193034 80 303 3.0 10.0 0.00 0.00 0.00 48 1011.7
20260904191533 80 260 4.0 10.0 0.00 0.00 0.00 50 1012.0
20260904190024 80 250 1.0 8.0 0.00 0.00 0.00 51 1012.2
20260904184523 79 308 5.0 9.0 0.00 0.00 0.00 53 1012.3
20260904183021 79 215 0.0 5.0 0.00 0.00 0.00 55 1012.4
20260904181519 78 287 0.0 4.0 0.00 0.00 0.00 58 1012.5
20260904180020 77 208 1.0 7.0 0.00 0.00 0.00 58 1012.5
20260904174515 77 250 1.0 4.0 0.00 0.00 0.00 60 1012.7
20260904173012 75 37 0.0 3.0 0.00 0.00 0.00 64 1012.7
20260904171513 74 244 0.0 4.0 0.00 0.00 0.00 65 1012.6
20260904170008 74 11 0.0 3.0 0.00 0.00 0.00 68 1012.6